Weather History for Forrest, WE

Change the Weather History Date:

Thursday, January 10, 2013

  Actual Average Record
Temperature  
Mean Temperature 92 °F -  
Max Temperature 116 °F - - ()
Min Temperature 68 °F - - ()
Cooling Degree Days 27    
Growing Degree Days 42 (Base 50)    
Moisture  
Dew Point 48 °F    
Average Humidity 35    
Maximum Humidity 83    
Minimum Humidity 4    
Precipitation  
Precipitation 0.00 in - - ()
Sea Level Pressure  
Sea Level Pressure 29.58 in    
Wind  
Wind Speed 16 mph ()    
Max Wind Speed 30 mph    
Max Gust Speed 43 mph    
T = Trace of Precipitation, MM = Missing Value Source: Averaged Metar Reports

Daily Weather History Graph

Daily Weather History Graph

Search for Another Location

Airport:

Trip Planner

Search our weather history database for the weather conditions in past years. The results will help you decide how hot, cold, wet, or windy it might be!

Date:

Astronomy

Jan. 10, 2013 Rise Set
Actual Time 4:34 AM AWST 6:35 PM AWST
Civil Twilight 4:07 AM AWST 7:02 PM AWST
Nautical Twilight 3:34 AM AWST 7:35 PM AWST
Astronomical Twilight 2:58 AM AWST 8:10 PM AWST
Moon 2:40 AM AWST (1/10) 4:58 PM AWST (1/10)
Length of Visible Light 14h 54m
Length of Day
14h 00m
Waning Crescent, 4% of the Moon is Illuminated
Jan 10
Waning Crescent
Jan 12
New
Jan 19
First Quarter
Jan 27
Full
Feb 3
Last Quarter

Hourly Weather History & Observations

Time (AWST) Temp. Heat Index Dew Point Humidity Pressure Visibility Wind Dir Wind Speed Gust Speed Precip Events Conditions
12:00 AM 72 °F - 51 °F 36% 29.64 in - ENE 12.7 mph - -  
12:00 AM 71.6 °F - 50.0 °F 46% 29.65 in - ENE 12.7 mph - N/A   Unknown
1:00 AM 71.6 °F - 51.8 °F 50% 29.62 in - ENE 11.5 mph - N/A   Unknown
2:00 AM 69.8 °F - 48.2 °F 46% 29.62 in - ENE 13.8 mph - N/A   Unknown
3:00 AM 70 °F - 47 °F 32% 29.59 in - NE 15.0 mph - -  
3:00 AM 69.8 °F - 46.4 °F 43% 29.59 in - NE 15.0 mph - N/A   Unknown
4:00 AM 71.6 °F - 44.6 °F 38% 29.59 in - NNE 15.0 mph - N/A   Unknown
5:00 AM 72 °F - 46 °F 28% 29.58 in - NNE 13.8 mph - -  
5:00 AM 71.6 °F - 46.4 °F 41% 29.59 in - NNE 13.8 mph - N/A   Unknown
6:00 AM 79 °F - 45 °F 20% 29.58 in - NNE 17.3 mph - -  
6:00 AM 78.8 °F - 44.6 °F 30% 29.59 in - NNE 17.3 mph - N/A   Unknown
6:56 AM 87.8 °F - 42.8 °F 21% 29.59 in - NNE 19.6 mph - N/A   Unknown
7:00 AM 87.8 °F - 41.0 °F 19% 29.59 in - North 19.6 mph - N/A   Unknown
8:00 AM 96 °F - 37 °F 6% 29.55 in - North 20.7 mph - -  
8:00 AM 96.8 °F - 37.4 °F 13% 29.56 in - North 20.7 mph - N/A   Unknown
9:00 AM 102 °F - 35 °F 4% 29.55 in - North 18.4 mph - -  
9:00 AM 102.2 °F - 35.6 °F 10% 29.56 in - North 18.4 mph - N/A   Unknown
10:00 AM 105.8 °F - 33.8 °F 8% 29.56 in - North 11.5 mph - N/A   Unknown
11:00 AM 111 °F - 33 °F 4% 29.52 in - NNW 10.4 mph - -  
11:00 AM 111.2 °F - 32.0 °F 7% 29.53 in - NNW 10.4 mph - N/A   Unknown
12:00 PM 112 °F - 29 °F 4% 29.49 in - NNW 9.2 mph - -  
12:00 PM 111.2 °F - 30.2 °F 6% 29.50 in - NNW 9.2 mph - N/A   Unknown
1:00 PM 113.0 °F - 30.2 °F 6% 29.47 in - West 11.5 mph - N/A   Unknown
2:00 PM 115 °F - 32 °F 4% 29.46 in - WNW 10.4 mph - -  
2:00 PM 114.8 °F - 32.0 °F 6% 29.47 in - WNW 10.4 mph 24.2 mph N/A   Unknown
2:26 PM 111.2 °F - 39.2 °F 9% 29.47 in - South 23.0 mph - N/A   Unknown
3:00 PM 105 °F - 48 °F 8% 29.47 in - South 28.8 mph - -  
3:00 PM 105.8 °F - 48.2 °F 14% 29.47 in - South 28.8 mph 41.4 mph N/A   Unknown
3:59 PM 95.0 °F 92.7 °F 53.6 °F 25% 29.50 in - South 29.9 mph 42.6 mph N/A   Unknown
4:00 PM 95.0 °F 92.7 °F 53.6 °F 25% 29.50 in - South 29.9 mph 42.6 mph N/A   Unknown
4:48 PM 86.0 °F 84.9 °F 57.2 °F 37% 29.53 in - South 28.8 mph - N/A   Unknown
5:00 PM 84 °F - 59 °F 32% 29.55 in - South 27.6 mph - -  
5:00 PM 84.2 °F 83.8 °F 59.0 °F 42% 29.56 in - South 27.6 mph - N/A   Unknown
6:00 PM 78.8 °F - 62.6 °F 57% 29.62 in - South 26.5 mph - N/A   Unknown
6:13 PM 77.0 °F - 62.6 °F 61% 29.62 in - South 25.3 mph 36.8 mph N/A   Unknown
7:00 PM 73.4 °F - 64.4 °F 73% 29.65 in - South 24.2 mph - N/A   Unknown
8:00 PM 72 °F - 64 °F 70% 29.66 in - South 21.9 mph - -  
8:00 PM 71.6 °F - 64.4 °F 78% 29.68 in - South 21.9 mph - N/A   Unknown
8:22 PM 71.6 °F - 64.4 °F 78% 29.68 in - South 23.0 mph 34.5 mph N/A   Unknown
9:00 PM 71 °F - 66 °F 81% 29.66 in - South 23.0 mph - -  
9:00 PM 71.6 °F - 66.2 °F 83% 29.68 in - South 23.0 mph - N/A   Unknown
10:00 PM 69.8 °F - 62.6 °F 78% 29.68 in - South 21.9 mph - N/A   Unknown
11:00 PM 68 °F - 60 °F 70% 29.67 in - South 18.4 mph - -  
11:00 PM 68.0 °F - 60.8 °F 78% 29.68 in - South 18.4 mph - N/A   Unknown